Location: Aufkirchen
(47.9603°N, 11.3653°E)
Time: 11:49:26
(UTC+01:00)

Tiros 1 - Pass Details

Date: 27 November 2020
Orbit: 630 x 663 km, 48.4° (Epoch: 21 January)

Event Time Altitude Azimuth Distance (km) Brightness Sun altitude
Rises 20:25:17 0° 283° (WNW) 2,983 11.5 -39.4°
Reaches altitude 10° 20:27:39 10° 281° (WNW) 2,066 10.4 -39.7°
Enters shadow 20:28:10 13° 281° (W) 1,873 10.1 -39.8°
Maximum altitude 20:32:24 70° 199° (SSW) 691 - -40.5°
Drops below altitude 10° 20:37:05 10° 116° (ESE) 2,039 - -41.3°
Sets 20:39:24 0° 114° (ESE) 2,942 - -41.7°
